Watford City, ND

12:53 PM CDT on September 28, 2016 (GMT -0500)
Watford City

Weather History for KS25 - June, 2013

Change the Weather History Date:

Sunday, June 30, 2013

  Actual Average (KISN) Record (KISN)
Temperature  
Mean Temperature 62 °F 67 °F  
Max Temperature 75 °F 81 °F 98 °F (1912)
Min Temperature 50 °F 53 °F 34 °F (1995)
Degree Days  
Heating Degree Days 2 2  
Month to date heating degree days 120  
Since 1 June heating degree days 120  
Since 1 July heating degree days 8994  
Cooling Degree Days 0 4  
Month to date cooling degree days 68  
Year to date cooling degree days 81  
Since 1 June cooling degree days 68  
Growing Degree Days 12 (Base 50)    
Moisture  
Dew Point 55 °F    
Average Humidity 75    
Maximum Humidity 100    
Minimum Humidity 50    
Precipitation  
Precipitation 0.00 in 0.09 in 1.39 in (1988)
Month to date precipitation 2.52  
Year to date precipitation 7.13  
Sea Level Pressure  
Sea Level Pressure 30.18 in    
Wind  
Wind Speed 4 mph (ESE)    
Max Wind Speed 14 mph    
Max Gust Speed 20 mph    
Visibility 10 miles    
Events      
T = Trace of Precipitation, MM = Missing Value Source: NWS Daily Summary

Daily Weather History Graph

Daily Weather History Graph

Search for Another Location

Airport or City:

Trip Planner

Search our weather history database for the weather conditions in past years. The results will help you decide how hot, cold, wet, or windy it might be!

Date:

Astronomy

Jun. 30, 2013 Rise Set
Actual Time 5:58 AM CDT 9:55 PM CDT
Civil Twilight 5:17 AM CDT 10:35 PM CDT
Nautical Twilight 4:21 AM CDT 11:31 PM CDT
Astronomical Twilight 2:51 AM CDT 1:00 AM CDT
Moon 1:20 AM CDT (6/30) 2:52 PM CDT (6/30)
Length of Visible Light 17h 18m
Length of Day
15h 57m
Last Quarter, 45% of the Moon is Illuminated
Jun 30
Last Quarter
Jul 8
New
Jul 15
First Quarter
Jul 22
Full
Jul 29
Last Quarter

Hourly Weather History & Observations

Time (CDT) Temp. Dew Point Humidity Pressure Visibility Wind Dir Wind Speed Gust Speed Precip Events Conditions
12:15 AM 55.4 °F 55.4 °F 100% 30.15 in 10.0 mi Calm Calm - N/A   Clear
12:35 AM 55.4 °F 53.6 °F 94% 30.16 in 10.0 mi Calm Calm - N/A   Clear
12:55 AM 55.4 °F 55.4 °F 100% 30.16 in 9.0 mi SSW 3.5 mph - N/A   Clear
1:15 AM 55.4 °F 53.6 °F 94% 30.16 in 10.0 mi Calm Calm - N/A   Clear
1:35 AM 53.6 °F 53.6 °F 100% 30.15 in 10.0 mi Calm Calm - N/A   Scattered Clouds
1:55 AM 55.4 °F 55.4 °F 100% 30.15 in 10.0 mi Calm Calm - N/A   Partly Cloudy
2:15 AM 53.6 °F 53.6 °F 100% 30.15 in 10.0 mi Calm Calm - N/A   Partly Cloudy
2:35 AM 53.6 °F 53.6 °F 100% 30.15 in 10.0 mi Calm Calm - N/A   Partly Cloudy
2:55 AM 53.6 °F 53.6 °F 100% 30.16 in 10.0 mi Calm Calm - N/A   Partly Cloudy
3:15 AM 53.6 °F 53.6 °F 100% 30.15 in 10.0 mi Calm Calm - N/A   Partly Cloudy
3:35 AM 53.6 °F 51.8 °F 94% 30.15 in 10.0 mi Calm Calm - N/A   Clear
3:55 AM 55.4 °F 55.4 °F 100% 30.16 in 10.0 mi Calm Calm - N/A   Clear
4:15 AM 53.6 °F 53.6 °F 100% 30.16 in 10.0 mi Calm Calm - N/A   Clear
4:35 AM 53.6 °F 53.6 °F 100% 30.16 in 10.0 mi Calm Calm - N/A   Clear
4:55 AM 51.8 °F 51.8 °F 100% 30.17 in 10.0 mi Calm Calm - N/A   Clear
5:15 AM 51.8 °F 51.8 °F 100% 30.16 in 10.0 mi Calm Calm - N/A   Clear
5:35 AM 51.8 °F 51.8 °F 100% 30.17 in 10.0 mi Calm Calm - N/A   Clear
5:55 AM 51.8 °F 51.8 °F 100% 30.17 in 8.0 mi Calm Calm - N/A   Clear
6:15 AM 50.0 °F 50.0 °F 100% 30.18 in 10.0 mi Calm Calm - N/A   Clear
6:35 AM 51.8 °F 51.8 °F 100% 30.18 in 7.0 mi Calm Calm - N/A   Clear
6:55 AM 51.8 °F 51.8 °F 100% 30.18 in 10.0 mi Calm Calm - N/A   Clear
7:15 AM 53.6 °F 53.6 °F 100% 30.19 in 10.0 mi Calm Calm - N/A   Clear
7:35 AM 55.4 °F 55.4 °F 100% 30.18 in 9.0 mi NNE 3.5 mph - N/A   Clear
7:55 AM 57.2 °F 57.2 °F 100% 30.18 in 10.0 mi Calm Calm - N/A   Clear
8:15 AM 59.0 °F 57.2 °F 94% 30.18 in 10.0 mi Calm Calm - N/A   Clear
8:35 AM 62.6 °F 59.0 °F 88% 30.18 in 10.0 mi ESE 6.9 mph - N/A   Clear
8:55 AM 62.6 °F 59.0 °F 88% 30.19 in 10.0 mi ESE 5.8 mph - N/A   Clear
9:15 AM 64.4 °F 59.0 °F 83% 30.19 in 10.0 mi SE 8.1 mph - N/A   Clear
9:35 AM 66.2 °F 59.0 °F 78% 30.19 in 10.0 mi ESE 8.1 mph - N/A   Clear
9:55 AM 68.0 °F 57.2 °F 68% 30.19 in 10.0 mi SE 9.2 mph - N/A   Clear
10:15 AM 68.0 °F 53.6 °F 60% 30.19 in 10.0 mi ESE 12.7 mph - N/A   Clear
10:35 AM 68.0 °F 53.6 °F 60% 30.20 in 10.0 mi ESE 10.4 mph - N/A   Clear
10:55 AM 68.0 °F 55.4 °F 64% 30.20 in 10.0 mi ESE 10.4 mph - N/A   Clear
11:15 AM 71.6 °F 57.2 °F 60% 30.20 in 10.0 mi SE 11.5 mph - N/A   Clear
11:35 AM 71.6 °F 57.2 °F 60% 30.19 in 10.0 mi ESE 10.4 mph 17.3 mph N/A   Clear
11:55 AM 71.6 °F 57.2 °F 60% 30.20 in 10.0 mi SE 10.4 mph - N/A   Clear
12:15 PM 71.6 °F 57.2 °F 60% 30.19 in 10.0 mi SE 13.8 mph - N/A   Clear
12:35 PM 73.4 °F 57.2 °F 57% 30.19 in 10.0 mi East 9.2 mph - N/A   Clear
12:55 PM 73.4 °F 57.2 °F 57% 30.19 in 10.0 mi ESE 12.7 mph 17.3 mph N/A   Clear
1:15 PM 73.4 °F 59.0 °F 61% 30.19 in 10.0 mi SE 9.2 mph 17.3 mph N/A   Clear
1:35 PM 73.4 °F 57.2 °F 57% 30.19 in 10.0 mi ESE 8.1 mph - N/A   Clear
1:55 PM 75.2 °F 59.0 °F 57% 30.19 in 10.0 mi SSE 10.4 mph - N/A   Clear
2:15 PM 73.4 °F 57.2 °F 57% 30.19 in 10.0 mi East 9.2 mph - N/A   Scattered Clouds
2:35 PM 75.2 °F 57.2 °F 53% 30.19 in 10.0 mi East 9.2 mph - N/A   Scattered Clouds
2:55 PM 73.4 °F 57.2 °F 57% 30.19 in 10.0 mi ESE 10.4 mph 16.1 mph N/A   Partly Cloudy
3:15 PM 73.4 °F 57.2 °F 57% 30.19 in 10.0 mi East 12.7 mph 18.4 mph N/A   Scattered Clouds
3:35 PM 75.2 °F 57.2 °F 53% 30.18 in 10.0 mi ESE 11.5 mph 18.4 mph N/A   Partly Cloudy
3:55 PM 75.2 °F 57.2 °F 53% 30.18 in 10.0 mi East 11.5 mph - N/A   Clear
4:15 PM 75.2 °F 57.2 °F 53% 30.18 in 10.0 mi ESE 6.9 mph 18.4 mph N/A   Clear
4:35 PM 75.2 °F 57.2 °F 53% 30.18 in 10.0 mi ESE 10.4 mph 19.6 mph N/A   Partly Cloudy
4:55 PM 75.2 °F 57.2 °F 53% 30.18 in 10.0 mi ESE 11.5 mph - N/A   Partly Cloudy
5:15 PM 75.2 °F 57.2 °F 53% 30.18 in 10.0 mi ESE 12.7 mph 16.1 mph N/A   Scattered Clouds
5:35 PM 75.2 °F 57.2 °F 53% 30.18 in 10.0 mi East 10.4 mph - N/A   Partly Cloudy
5:55 PM 75.2 °F 57.2 °F 53% 30.18 in 10.0 mi ESE 12.7 mph 16.1 mph N/A   Clear
6:15 PM 75.2 °F 55.4 °F 50% 30.18 in 10.0 mi ESE 9.2 mph - N/A   Clear
6:35 PM 75.2 °F 57.2 °F 53% 30.17 in 10.0 mi ESE 12.7 mph - N/A   Clear
6:55 PM 75.2 °F 55.4 °F 50% 30.17 in 10.0 mi East 9.2 mph - N/A   Clear
7:15 PM 75.2 °F 55.4 °F 50% 30.17 in 10.0 mi ESE 6.9 mph - N/A   Clear
7:35 PM 73.4 °F 53.6 °F 50% 30.17 in 10.0 mi East 10.4 mph - N/A   Clear
7:55 PM 73.4 °F 53.6 °F 50% 30.18 in 10.0 mi East 9.2 mph - N/A   Clear
8:15 PM 73.4 °F 53.6 °F 50% 30.18 in 10.0 mi East 9.2 mph - N/A   Clear
8:35 PM 71.6 °F 53.6 °F 53% 30.18 in 10.0 mi East 8.1 mph - N/A   Clear
8:55 PM 69.8 °F 51.8 °F 53% 30.18 in 10.0 mi East 8.1 mph - N/A   Clear
9:15 PM 68.0 °F 51.8 °F 56% 30.18 in 10.0 mi East 8.1 mph - N/A   Clear
9:35 PM 64.4 °F 55.4 °F 73% 30.19 in 10.0 mi ESE 5.8 mph - N/A   Clear
9:55 PM 62.6 °F 55.4 °F 77% 30.19 in 10.0 mi ESE 6.9 mph - N/A   Clear
10:15 PM 60.8 °F 53.6 °F 77% 30.20 in 10.0 mi SE 6.9 mph - N/A   Clear
10:35 PM 59.0 °F 53.6 °F 82% 30.21 in 10.0 mi ESE 8.1 mph - N/A   Clear
10:55 PM 59.0 °F 53.6 °F 82% 30.21 in 10.0 mi ESE 3.5 mph - N/A   Clear
11:15 PM 57.2 °F 53.6 °F 88% 30.21 in 10.0 mi East 5.8 mph - N/A   Clear
11:35 PM 59.0 °F 51.8 °F 77% 30.21 in 10.0 mi East 6.9 mph - N/A   Clear
11:55 PM 57.2 °F 53.6 °F 88% 30.22 in 10.0 mi ESE 6.9 mph - N/A   Clear